Orbital Elements
Epoch 2013 Jan. 28.0 TT = JDT 2456320.5
T 2013 Jan. 16.24414 TT MPC
q 3.9237603 (2000.0) P Q
n 0.07862492 Peri. 205.80245 +0.50610936 -0.85089893
a 5.3962976 Node 214.30788 +0.82823757 +0.52503810
e 0.2728792 Incl. 14.46586 +0.24057397 -0.01749306
P 12.5
From 144 observations 2000 Dec. 19-2013 Mar. 4, mean residual 0".5.
|